Temperature
15 15 15 15 15 15 15 15 15 15 15 15 15 15 15 15 15 15 15 15 15 15 15 15 15 15 15 15 15 15 15 15 15 15 15 16 16 16 16 15 15 15 15
15 15 15 15 14 14 14 15 15 15 15 15 15 15 15 15 15 15 15 15 15 15 15 15 15 15 15 15 15 15 15 15 15 15 15 15 15 15 15 15 15 15 15
14 14 14 14 14 14 14 14 14 14 15 15 15 15 15 15 15 15 15 15 15 15 15 15 15 15 15 15 15 15 15 15 15 15 15 15 15 15 15 15 15 15 15
14 14 14 14 14 14 14 14 14 14 14 14 14 14 14 14 14 14 14 15 14 14 14 14 14 15 15 15 15 15 15 15 15 15 14 14 14 15 15 15 15 15 15
14 14 14 14 14 14 14 14 14 14 14 14 14 14 14 14 14 14 14 14 14 14 14 14 14 14 15 15 15 15 15 15 15 14 14 14 14 15 15 15 15 15 14
13 13 13 13 14 14 14 14 14 14 14 14 14 14 14 14 14 14 14 14 14 14 14 14 14 14 14 15 15 15 15 15 14 14 14 14 14 14 15 15 14 14 14
13 13 13 13 13 13 13 13 13 13 13 13 13 14 14 14 14 14 14 14 14 14 14 14 14 14 14 14 14 14 14 14 14 13 13 14 14 14 14 14 14 14 14
13 13 13 13 13 13 13 13 13 13 13 13 13 13 13 13 13 14 13 13 14 14 14 14 14 14 14 14 14 14 14 14 14 13 13 13 14 14 14 14 14 14 14
12 12 12 12 12 12 12 12 12 12 12 13 13 13 13 13 13 13 13 13 13 13 13 13 14 14 14 14 14 14 14 14 13 13 13 13 13 14 14 14 14 14 14
12 12 12 12 12 12 12 12 12 12 12 12 12 13 13 13 13 13 13 13 13 13 13 13 13 13 13 13 13 13 13 13 13 13 13 13 13 13 13 13 14 14 14
12 11 12 11 11 11 11 11 11 11 12 12 12 12 12 12 12 12 12 12 12 12 13 13 13 13 13 13 13 13 13 13 12 12 13 13 13 13 13 13 13 13 13
11 11 11 11 11 11 11 11 11 11 11 11 11 12 12 12 12 12 12 12 12 12 12 12 12 12 12 12 12 13 12 12 12 12 12 13 13 13 13 13 13 13 13
10 10 10 10 10 10 11 11 11 11 11 11 11 11 11 11 11 11 12 11 11 12 12 12 12 12 12 12 12 12 12 12 12 12 12 13 13 13 13 13 13 12 12
9 9 10 10 10 10 10 10 10 10 10 10 11 11 11 11 11 11 11 11 11 11 11 11 11 11 11 11 11 12 12 12 12 12 12 12 13 12 12 12 12 12 12
9 9 9 9 9 10 10 10 10 10 10 10 10 10 11 10 10 10 10 11 11 11 11 11 11 11 11 11 11 11 11 11 12 12 12 12 12 12 12 12 12 12 12
8 8 8 8 9 9 9 9 9 10 10 10 10 10 10 10 10 10 10 10 10 10 10 10 10 11 11 11 11 11 11 11 11 11 11 11 12 12 12 12 12 12 12
7 7 8 8 8 8 8 9 9 9 9 9 9 9 9 10 10 10 10 10 10 10 10 10 10 10 10 10 10 10 10 11 11 11 11 11 11 11 11 12 12 11 12
6 7 7 7 7 8 8 8 8 8 8 9 9 9 9 9 9 9 9 9 9 9 9 10 10 10 10 10 10 10 10 10 10 10 10 11 11 11 11 11 11 11 11
5 6 6 7 7 7 7 7 7 7 8 8 8 8 8 8 8 8 8 9 9 9 9 9 9 9 9 10 10 10 10 10 10 10 10 10 10 10 11 11 11 11 11
5 5 6 6 6 6 6 6 7 7 7 7 7 7 7 8 8 8 8 8 8 8 8 9 9 9 9 9 9 9 9 9 9 9 9 9 10 10 10 10 10 10 10
4 5 5 5 5 5 5 6 6 6 7 7 7 7 7 7 7 7 7 7 8 8 8 8 8 8 8 9 9 8 8 9 9 9 9 9 9 9 9 10 10 10 10
3 4 4 4 5 5 5 5 5 5 6 6 6 6 6 6 6 7 7 7 7 7 7 7 8 8 8 8 8 8 8 8 8 8 8 9 9 9 9 9 9 9 9
2 3 3 3 4 4 4 4 4 4 5 5 5 5 5 6 6 6 6 6 6 6 7 7 7 7 7 8 8 8 8 8 8 8 8 8 8 8 8 9 9 9 9
1 2 2 2 3 3 3 3 3 3 4 4 4 4 5 5 5 5 5 5 6 6 6 6 6 6 7 7 7 7 8 8 7 7 7 8 8 8 8 8 8 8 8
0 1 1 2 2 2 2 3 3 3 3 3 3 4 4 4 4 4 5 5 5 5 5 5 6 6 6 6 6 7 7 7 7 7 7 7 7 7 8 8 8 8 8
0 0 1 1 1 2 2 2 2 2 2 2 2 3 3 3 4 4 4 4 4 4 5 5 5 5 5 6 6 6 6 6 6 6 6 6 6 7 7 7 7 7 7
Wind_Speed
4 5 5 6 7 8 8 8 7 8 8 8 8 8 9 9 9 9 9 9 9 9 10 10 11 11 12 12 13 13 13 13 14 14 14 14 14 14 13 12 11 13 15
4 5 6 6 6 7 7 7 7 8 7 7 7 7 8 8 8 9 8 8 8 8 9 10 10 11 11 12 12 12 12 13 13 12 12 13 13 13 13 11 11 13 14
4 5 6 6 7 7 7 7 7 7 7 7 7 7 7 7 7 7 8 8 8 8 9 9 10 10 11 11 11 12 11 11 11 9 8 10 12 12 12 12 13 14 14
4 5 5 6 6 6 6 7 6 6 6 6 6 7 7 6 6 6 7 7 7 8 8 8 9 9 10 10 10 10 10 10 8 5 7 8 10 11 11 11 12 12 13
5 5 6 7 6 6 6 6 5 5 5 5 6 6 6 6 6 6 6 6 7 7 7 7 8 8 9 9 9 9 9 8 6 5 7 8 8 10 10 11 11 12 12
5 5 7 7 7 6 6 5 5 5 5 5 5 5 6 6 6 6 6 6 6 6 6 7 7 7 8 8 8 8 8 6 5 6 6 7 8 10 10 10 11 11 11
5 6 6 7 7 6 5 5 5 4 4 5 4 5 5 5 5 5 5 5 5 5 6 7 7 7 7 7 7 7 6 4 4 5 5 6 7 9 8 9 10 10 10
5 6 6 6 6 6 6 5 5 5 5 4 5 5 5 5 5 5 5 5 5 5 6 6 6 6 6 7 7 6 5 3 4 5 5 6 7 7 7 8 9 9 9
7 6 5 5 5 5 5 5 5 5 5 5 4 5 5 5 4 4 4 4 4 5 5 5 6 6 6 6 6 6 5 2 3 4 4 5 6 5 6 7 8 9 9
7 6 6 6 4 3 3 5 5 5 4 4 5 6 5 5 5 4 4 4 4 5 5 5 5 5 6 6 6 6 4 2 3 3 3 5 6 5 6 6 8 8 8
6 6 6 6 5 4 3 4 4 5 5 5 5 5 4 3 3 3 4 4 4 4 4 4 5 5 6 6 6 5 4 2 3 3 3 5 5 4 5 6 7 7 8
5 6 6 6 5 5 4 3 3 3 4 3 2 2 1 2 2 3 4 4 3 4 4 4 4 5 5 5 5 5 3 2 2 3 4 5 4 3 4 5 6 7 8
4 5 6 6 5 4 3 3 2 3 3 3 3 3 2 2 2 2 1 2 2 3 3 4 4 4 4 4 4 4 3 2 2 2 3 4 2 3 4 5 6 6 7
6 6 6 6 5 4 3 3 2 2 2 2 3 3 2 2 1 1 0 0 1 1 2 2 2 3 3 4 4 4 3 2 2 2 3 4 2 2 4 5 6 6 6
6 7 7 6 5 4 3 3 3 3 2 2 2 3 3 1 1 1 1 1 1 1 2 2 3 3 3 3 3 3 3 3 3 2 2 4 2 2 3 4 5 5 6
7 7 6 6 6 5 4 3 3 2 2 2 2 3 3 2 1 1 1 1 1 2 2 3 3 3 3 2 3 3 3 3 3 3 2 3 3 2 3 3 4 4 5
7 7 7 6 6 5 4 3 3 3 3 2 2 3 3 3 3 2 1 1 1 2 2 2 3 3 3 3 3 3 2 3 3 3 3 2 2 3 3 3 3 4 4
8 8 8 7 6 6 5 4 3 3 3 3 3 3 4 4 4 2 1 1 2 2 2 2 2 3 3 3 3 2 2 2 2 3 3 2 2 2 4 4 4 3 3
8 8 8 8 7 7 5 4 4 3 3 3 3 3 4 4 4 3 2 2 2 2 2 2 3 3 4 3 3 2 2 2 2 2 2 2 2 2 3 5 5 4 4
8 8 7 8 8 7 5 4 3 3 3 3 3 4 4 4 4 3 2 3 2 2 2 2 3 3 3 3 3 2 2 2 2 2 3 2 2 2 2 3 4 4 4
9 9 8 8 8 7 5 4 4 3 3 3 3 4 4 4 4 3 2 3 3 3 3 3 3 4 3 3 3 3 2 2 3 2 3 2 2 2 2 2 2 3 3
9 9 8 8 7 6 5 5 4 4 3 3 3 4 4 5 5 4 3 3 3 3 4 4 3 3 3 4 4 3 3 4 3 3 3 3 3 2 2 2 2 2 2
9 10 8 8 7 7 7 5 5 3 3 3 4 3 4 5 5 4 4 4 3 3 4 4 5 5 4 4 5 4 4 4 3 4 4 4 3 3 3 3 2 2 2
9 9 9 8 7 7 6 5 6 4 4 5 4 4 5 5 5 5 5 4 4 3 4 5 5 5 5 5 4 4 4 2 3 3 4 4 4 4 4 3 3 2 2
9 9 9 9 8 8 7 6 6 6 5 5 5 5 5 4 5 5 5 4 4 4 5 5 5 5 5 5 5 4 4 4 5 5 4 5 4 4 4 3 2 2 3
9 9 9 9 8 8 8 7 7 7 7 7 6 6 5 4 4 5 5 5 5 4 5 5 6 6 6 6 5 5 5 5 6 6 6 5 5 4 4 3 3 2 3
Wind_Direction
151 145 131 146 138 129 123 115 117 114 111 109 106 106 105 101 97 96 96 93 92 93 92 92 92 95 93 90 90 90 89 88 85 86 86 86 88 90 89 87 92 89 88
141 146 135 135 133 130 128 120 110 112 112 111 108 107 108 105 100 96 96 95 94 95 94 94 92 95 94 92 90 90 88 88 87 88 92 91 88 89 88 78 71 90 93
123 132 137 127 125 119 118 115 109 110 116 117 113 112 113 110 105 101 97 94 94 94 95 95 93 94 97 96 94 91 89 89 88 93 106 102 96 92 91 86 85 92 92
113 118 116 104 114 113 108 105 104 111 116 119 119 120 120 115 112 105 100 93 91 90 92 95 95 95 97 97 97 95 93 91 90 105 104 98 100 97 99 96 94 94 93
98 98 94 85 93 96 97 104 105 106 113 116 118 121 118 116 114 112 104 99 95 94 96 97 97 97 99 100 99 98 96 95 101 109 98 98 99 102 107 105 100 98 97
87 84 83 73 80 85 87 90 97 105 108 112 114 118 119 117 116 112 105 104 102 98 102 107 106 104 103 104 104 103 99 102 130 109 105 104 104 104 108 107 104 102 101
75 67 76 67 69 72 78 85 88 90 99 101 104 107 110 114 117 117 111 107 106 106 112 117 115 110 108 109 107 106 101 95 113 109 107 106 101 105 110 110 108 107 106
65 60 64 61 61 64 66 66 70 78 82 87 88 89 90 95 107 117 113 109 109 113 123 123 120 117 111 108 110 106 103 110 117 113 113 110 97 106 116 115 113 112 113
50 48 47 55 59 61 61 62 61 68 74 77 79 79 80 87 91 104 113 108 106 113 125 128 126 122 118 116 112 108 104 94 122 114 115 108 101 109 121 121 120 117 116
41 39 32 30 31 45 64 64 62 66 71 72 75 77 81 91 93 93 105 108 106 107 114 130 132 127 125 125 120 117 120 151 129 123 119 105 102 116 126 123 126 124 122
29 26 24 23 21 24 52 60 62 69 70 78 83 84 96 104 102 103 89 85 106 112 109 115 132 130 135 134 129 132 153 158 137 119 111 99 109 123 130 129 130 131 130
12 10 13 14 18 21 31 50 49 54 66 64 69 75 81 85 79 81 86 86 97 115 119 120 135 155 173 163 152 165 178 174 150 128 110 100 112 127 137 139 135 137 140
2 5 5 6 11 21 22 31 39 44 48 44 41 33 35 62 79 84 95 120 139 158 159 154 174 185 188 179 177 180 182 179 160 133 116 105 121 143 147 145 141 141 147
3 358 359 3 5 10 17 25 30 35 36 31 27 23 23 33 32 26 330 294 238 214 194 196 195 191 193 188 187 185 182 177 169 148 110 103 133 160 160 158 153 152 151
4 358 359 359 4 6 14 17 24 26 17 11 22 15 5 7 0 349 323 300 257 249 228 222 206 199 199 193 193 194 188 185 183 179 140 108 114 143 160 165 165 168 167
359 354 356 360 2 8 13 10 14 20 14 9 8 3 359 348 330 301 282 305 280 254 247 231 215 206 210 199 197 198 201 197 195 196 189 147 125 129 147 164 175 179 180
356 354 356 359 2 7 4 0 7 14 11 5 359 355 349 338 325 312 267 267 289 279 250 233 220 210 207 205 208 207 205 208 204 205 200 196 171 155 162 164 170 173 178
359 1 0 1 0 2 2 355 4 5 5 357 350 352 343 330 320 309 287 275 289 275 246 222 223 216 212 215 214 207 203 199 206 206 198 199 194 190 171 161 161 159 162
2 3 4 3 2 358 355 356 359 2 3 354 347 345 339 330 318 301 291 288 278 264 243 232 224 222 214 209 208 209 210 211 213 207 201 197 180 185 187 172 168 159 155
7 6 6 7 6 360 355 356 357 357 355 351 343 338 331 323 313 307 295 284 273 253 250 241 233 224 216 202 202 205 207 214 221 218 215 202 186 184 189 188 179 170 166
9 7 7 6 5 4 357 348 340 334 330 330 333 330 327 317 308 304 304 291 274 251 249 242 241 219 212 197 202 209 212 211 219 231 225 211 196 193 187 191 186 177 168
5 2 0 0 359 359 352 341 326 312 308 317 328 323 321 316 308 299 290 280 277 262 250 240 232 228 218 208 205 202 211 212 214 223 223 220 219 204 203 199 194 195 187
3 358 352 350 350 352 350 346 342 332 327 325 320 309 312 307 302 292 281 275 267 256 248 240 232 232 226 220 222 217 211 216 199 202 216 217 218 221 215 203 204 210 209
356 354 351 348 348 350 349 344 339 325 315 310 307 301 304 301 298 292 282 275 265 255 251 247 239 236 231 226 230 236 240 218 205 199 203 210 215 226 227 213 210 208 215
351 352 350 348 351 350 347 341 329 321 311 306 303 300 300 299 297 295 286 276 266 259 256 256 255 243 232 232 227 229 226 228 226 219 215 204 209 219 228 225 220 215 211
351 352 351 348 349 349 345 339 329 321 317 311 306 298 295 292 292 294 292 279 267 260 253 251 251 250 243 237 233 226 220 216 214 215 222 213 216 216 220 226 221 221 212
Height
1536 1537 1537 1538 1540 1540 1541 1541 1542 1542 1543 1543 1543 1544 1544 1544 1544 1544 1544 1545 1545 1545 1545 1545 1545 1545 1545 1545 1545 1545 1545 1545 1545 1546 1546 1546 1546 1546 1546 1546 1547 1547 1547
1536 1537 1538 1539 1540 1541 1541 1542 1542 1543 1543 1544 1544 1544 1545 1545 1545 1545 1545 1545 1545 1546 1546 1546 1546 1546 1546 1546 1546 1546 1547 1547 1547 1547 1548 1548 1548 1548 1548 1548 1548 1549 1549
1536 1538 1538 1540 1540 1541 1542 1542 1543 1543 1544 1544 1544 1545 1545 1545 1545 1545 1546 1546 1546 1546 1546 1546 1547 1547 1547 1547 1548 1548 1548 1548 1549 1549 1550 1550 1550 1550 1550 1550 1550 1550 1550
1537 1538 1539 1540 1541 1542 1542 1542 1543 1544 1544 1544 1545 1545 1545 1546 1546 1546 1546 1546 1546 1546 1546 1547 1547 1547 1548 1548 1548 1549 1549 1550 1550 1550 1552 1552 1551 1551 1551 1551 1551 1552 1552
1538 1538 1539 1540 1541 1542 1542 1543 1543 1544 1544 1544 1545 1545 1545 1546 1546 1546 1546 1546 1547 1547 1547 1547 1547 1548 1548 1548 1549 1549 1550 1550 1551 1552 1552 1553 1553 1552 1552 1553 1553 1553 1553
1538 1539 1540 1540 1541 1542 1542 1543 1543 1544 1544 1544 1545 1545 1545 1545 1546 1546 1546 1546 1547 1547 1547 1547 1548 1548 1548 1549 1549 1550 1550 1551 1552 1553 1553 1553 1554 1553 1553 1554 1554 1554 1555
1538 1539 1540 1540 1541 1541 1542 1542 1543 1543 1544 1544 1544 1545 1545 1545 1546 1546 1546 1546 1547 1547 1547 1547 1548 1548 1548 1549 1549 1550 1551 1551 1552 1553 1553 1554 1554 1554 1554 1554 1555 1555 1555
1539 1539 1540 1540 1541 1541 1541 1542 1542 1543 1543 1543 1544 1544 1544 1545 1545 1545 1546 1546 1546 1546 1547 1547 1548 1548 1548 1549 1549 1550 1550 1551 1552 1553 1553 1554 1554 1554 1555 1555 1555 1556 1556
1539 1539 1540 1540 1540 1541 1541 1541 1541 1542 1542 1542 1543 1543 1544 1544 1544 1545 1545 1545 1546 1546 1546 1547 1547 1548 1548 1549 1549 1550 1550 1551 1553 1553 1553 1554 1554 1554 1555 1555 1556 1556 1556
1539 1539 1539 1540 1540 1540 1540 1540 1540 1541 1541 1541 1542 1542 1543 1543 1543 1544 1544 1544 1545 1545 1546 1546 1547 1547 1548 1549 1549 1550 1550 1551 1553 1553 1553 1553 1554 1554 1555 1555 1556 1556 1556
1538 1538 1538 1539 1539 1539 1540 1540 1540 1540 1540 1540 1541 1541 1542 1542 1542 1543 1543 1543 1544 1545 1545 1546 1546 1547 1547 1548 1548 1549 1550 1551 1552 1552 1552 1553 1553 1554 1555 1555 1556 1556 1556
1537 1537 1537 1538 1538 1538 1539 1539 1539 1539 1539 1539 1540 1540 1540 1541 1541 1541 1541 1542 1543 1543 1544 1545 1545 1546 1547 1547 1548 1548 1549 1550 1551 1551 1551 1552 1553 1554 1554 1555 1555 1556 1556
1537 1537 1537 1536 1537 1537 1537 1538 1538 1538 1538 1538 1538 1538 1539 1539 1539 1540 1540 1541 1541 1542 1543 1543 1544 1545 1546 1546 1547 1547 1548 1549 1550 1550 1550 1551 1552 1553 1553 1554 1555 1555 1556
1536 1536 1536 1536 1536 1536 1536 1536 1536 1537 1537 1537 1537 1537 1537 1537 1537 1538 1538 1539 1539 1540 1541 1542 1543 1543 1544 1545 1545 1546 1547 1547 1548 1549 1549 1550 1551 1552 1552 1553 1554 1554 1555
1535 1535 1534 1534 1534 1534 1534 1535 1535 1535 1535 1535 1535 1535 1535 1536 1536 1536 1536 1537 1537 1538 1539 1540 1541 1541 1542 1543 1543 1544 1545 1546 1546 1547 1548 1548 1549 1550 1550 1551 1552 1553 1554
1534 1533 1533 1533 1532 1532 1532 1533 1533 1533 1533 1533 1534 1533 1534 1534 1534 1534 1534 1534 1535 1536 1536 1537 1538 1539 1540 1541 1541 1542 1543 1544 1544 1545 1546 1546 1547 1548 1549 1549 1550 1551 1552
1533 1533 1532 1531 1531 1531 1530 1531 1531 1531 1531 1531 1531 1531 1531 1531 1531 1531 1531 1532 1532 1533 1534 1535 1536 1537 1538 1538 1539 1540 1541 1541 1542 1543 1544 1544 1545 1546 1547 1547 1548 1549 1550
1533 1532 1531 1530 1530 1529 1529 1529 1529 1529 1529 1529 1529 1529 1529 1529 1529 1529 1529 1529 1530 1530 1531 1532 1533 1534 1535 1536 1536 1537 1538 1539 1540 1541 1541 1542 1543 1543 1544 1545 1546 1547 1548
1532 1531 1529 1529 1528 1527 1527 1527 1527 1527 1527 1527 1527 1527 1526 1526 1526 1526 1526 1526 1527 1527 1528 1529 1530 1531 1532 1533 1534 1534 1535 1536 1537 1538 1538 1539 1540 1541 1542 1542 1543 1544 1545
1531 1529 1528 1527 1526 1525 1525 1525 1524 1524 1525 1524 1524 1524 1524 1524 1523 1523 1523 1523 1523 1524 1525 1526 1527 1527 1528 1530 1531 1531 1532 1533 1534 1535 1535 1536 1537 1538 1539 1540 1541 1541 1542
1529 1528 1527 1525 1524 1523 1523 1522 1521 1521 1521 1521 1521 1521 1521 1521 1520 1520 1520 1520 1520 1521 1521 1522 1523 1524 1525 1526 1528 1528 1529 1530 1531 1532 1532 1533 1534 1535 1536 1537 1538 1539 1539
1528 1527 1526 1524 1523 1522 1521 1520 1519 1519 1518 1518 1518 1517 1517 1517 1517 1517 1516 1516 1517 1517 1518 1519 1520 1520 1521 1522 1524 1525 1526 1528 1526 1528 1529 1530 1531 1532 1533 1534 1535 1536 1536
1527 1525 1524 1523 1522 1521 1519 1518 1517 1516 1515 1515 1514 1514 1514 1513 1513 1513 1513 1513 1513 1513 1513 1514 1515 1516 1517 1518 1520 1522 1523 1523 1524 1525 1525 1526 1527 1529 1530 1531 1532 1532 1533
1526 1524 1522 1521 1520 1519 1517 1516 1515 1513 1512 1511 1511 1510 1510 1509 1509 1509 1509 1509 1509 1509 1510 1510 1511 1512 1513 1514 1516 1517 1518 1518 1520 1521 1522 1522 1524 1525 1526 1527 1528 1529 1530
1525 1523 1521 1520 1518 1516 1515 1513 1512 1511 1509 1509 1508 1507 1506 1506 1505 1505 1505 1505 1505 1505 1506 1506 1507 1508 1509 1510 1511 1512 1513 1514 1515 1517 1518 1519 1520 1521 1522 1523 1524 1525 1526
1524 1522 1520 1518 1516 1514 1512 1511 1509 1508 1506 1505 1504 1503 1502 1501 1501 1501 1500 1500 1500 1501 1501 1502 1502 1503 1504 1505 1506 1507 1508 1509 1510 1512 1513 1514 1515 1517 1518 1519 1520 1521 1522